| time (UTC) | temp F | wind direction | speed MPH | gust MPH | rain 1hr in | rain 24hr in | rain mn in | humidity % | barometer mb |
| 20260902203432 | 72 | 275 | 2.0 | 8.0 | 0.00 | 0.00 | 0.00 | 90 | 1011.8 |
| 20260902202935 | 72 | 308 | 2.0 | 7.0 | 0.00 | 0.00 | 0.00 | 90 | 1011.8 |
| 20260902202430 | 72 | 275 | 2.0 | 7.0 | 0.00 | 0.00 | 0.00 | 90 | 1011.8 |
| 20260902201931 | 72 | 312 | 2.0 | 6.0 | 0.00 | 0.00 | 0.00 | 90 | 1011.9 |
| 20260902201429 | 73 | 319 | 2.0 | 7.0 | 0.00 | 0.00 | 0.00 | 90 | 1011.9 |
| 20260902200929 | 73 | 318 | 3.0 | 9.0 | 0.00 | 0.00 | 0.00 | 90 | 1011.9 |
| 20260902195930 | 73 | 296 | 2.0 | 6.0 | 0.00 | 0.00 | 0.00 | 90 | 1012.0 |
| 20260902195430 | 73 | 329 | 2.0 | 6.0 | 0.00 | 0.00 | 0.00 | 90 | 1012.1 |
| 20260902194925 | 73 | 334 | 2.0 | 6.0 | 0.00 | 0.00 | 0.00 | 89 | 1012.1 |
| 20260902193925 | 73 | 286 | 2.0 | 8.0 | 0.00 | 0.00 | 0.00 | 89 | 1012.1 |
| 20260902192923 | 73 | 305 | 3.0 | 8.0 | 0.00 | 0.00 | 0.00 | 89 | 1012.0 |
| 20260902192423 | 73 | 342 | 2.0 | 8.0 | 0.00 | 0.00 | 0.00 | 89 | 1012.0 |
| 20260902191926 | 73 | 294 | 3.0 | 7.0 | 0.00 | 0.00 | 0.00 | 89 | 1012.0 |
| 20260902191419 | 73 | 290 | 3.0 | 8.0 | 0.00 | 0.00 | 0.00 | 88 | 1011.9 |
| 20260902190918 | 73 | 296 | 2.0 | 8.0 | 0.00 | 0.00 | 0.00 | 88 | 1011.9 |
| 20260902190416 | 74 | 325 | 2.0 | 8.0 | 0.00 | 0.00 | 0.00 | 88 | 1011.9 |
| 20260902185913 | 74 | 309 | 3.0 | 8.0 | 0.00 | 0.00 | 0.00 | 88 | 1012.0 |
| 20260902185413 | 74 | 339 | 4.0 | 8.0 | 0.00 | 0.00 | 0.00 | 87 | 1012.0 |
| 20260902184911 | 74 | 288 | 3.0 | 8.0 | 0.00 | 0.00 | 0.00 | 87 | 1012.0 |
| 20260902184413 | 74 | 324 | 3.0 | 8.0 | 0.00 | 0.00 | 0.00 | 87 | 1012.1 |
| 20260902183913 | 74 | 313 | 3.0 | 7.0 | 0.00 | 0.00 | 0.00 | 87 | 1012.1 |
| 20260902183410 | 74 | 287 | 3.0 | 9.0 | 0.00 | 0.00 | 0.00 | 86 | 1012.1 |
| 20260902182912 | 74 | 330 | 2.0 | 9.0 | 0.00 | 0.00 | 0.00 | 86 | 1012.1 |
| 20260902182406 | 74 | 318 | 3.0 | 8.0 | 0.00 | 0.00 | 0.00 | 85 | 1012.0 |
| 20260902181908 | 74 | 292 | 3.0 | 8.0 | 0.00 | 0.00 | 0.00 | 85 | 1012.0 |
| 20260902181405 | 75 | 295 | 3.0 | 9.0 | 0.00 | 0.00 | 0.00 | 85 | 1012.0 |
| 20260902180904 | 75 | 293 | 3.0 | 10.0 | 0.00 | 0.00 | 0.00 | 85 | 1012.0 |
| 20260902180407 | 75 | 348 | 3.0 | 10.0 | 0.00 | 0.00 | 0.00 | 84 | 1012.0 |
| 20260902175901 | 75 | 271 | 3.0 | 10.0 | 0.00 | 0.00 | 0.00 | 84 | 1012.0 |
| 20260902175359 | 75 | 292 | 3.0 | 10.0 | 0.00 | 0.00 | 0.00 | 83 | 1011.9 |
| 20260902174900 | 75 | 327 | 3.0 | 9.0 | 0.00 | 0.00 | 0.00 | 83 | 1011.9 |
| 20260902174359 | 75 | 311 | 3.0 | 9.0 | 0.00 | 0.00 | 0.00 | 82 | 1011.8 |
| 20260902173856 | 75 | 296 | 3.0 | 9.0 | 0.00 | 0.00 | 0.00 | 82 | 1011.8 |
| 20260902173355 | 76 | 269 | 4.0 | 9.0 | 0.00 | 0.00 | 0.00 | 81 | 1011.7 |
| 20260902172857 | 76 | 296 | 3.0 | 10.0 | 0.00 | 0.00 | 0.00 | 81 | 1011.8 |
| 20260902172400 | 76 | 285 | 3.0 | 10.0 | 0.00 | 0.00 | 0.00 | 80 | 1011.7 |
| 20260902170856 | 76 | 297 | 4.0 | 11.0 | 0.00 | 0.00 | 0.00 | 78 | 1011.5 |
| 20260902170355 | 77 | 291 | 3.0 | 11.0 | 0.00 | 0.00 | 0.00 | 78 | 1011.5 |
| 20260902165855 | 77 | 318 | 3.0 | 10.0 | 0.00 | 0.00 | 0.00 | 77 | 1011.4 |
| 20260902164854 | 77 | 290 | 4.0 | 10.0 | 0.00 | 0.00 | 0.00 | 76 | 1011.3 |
| 20260902164354 | 77 | 287 | 5.0 | 11.0 | 0.00 | 0.00 | 0.00 | 75 | 1011.1 |
| 20260902163854 | 78 | 297 | 4.0 | 11.0 | 0.00 | 0.00 | 0.00 | 74 | 1011.1 |
| 20260902163351 | 78 | 315 | 3.0 | 10.0 | 0.00 | 0.00 | 0.00 | 74 | 1011.0 |
| 20260902162851 | 78 | 320 | 2.0 | 9.0 | 0.00 | 0.00 | 0.00 | 73 | 1011.0 |
| 20260902162350 | 78 | 40 | 3.0 | 12.0 | 0.00 | 0.00 | 0.00 | 72 | 1011.1 |
| 20260902161849 | 79 | 316 | 4.0 | 12.0 | 0.00 | 0.00 | 0.00 | 71 | 1011.0 |
| 20260902161352 | 79 | 312 | 4.0 | 11.0 | 0.00 | 0.00 | 0.00 | 70 | 1011.0 |
| 20260902155843 | 80 | 348 | 3.0 | 11.0 | 0.00 | 0.00 | 0.00 | 67 | 1011.0 |
| 20260902155343 | 80 | 0 | 4.0 | 11.0 | 0.00 | 0.00 | 0.00 | 66 | 1011.0 |
| 20260902154842 | 80 | 355 | 4.0 | 10.0 | 0.00 | 0.00 | 0.00 | 66 | 1010.9 |
| 20260902154337 | 81 | 30 | 4.0 | 12.0 | 0.00 | 0.00 | 0.00 | 65 | 1010.8 |
| 20260902153834 | 81 | 340 | 4.0 | 12.0 | 0.00 | 0.00 | 0.00 | 65 | 1010.8 |
| 20260902153337 | 81 | 347 | 4.0 | 12.0 | 0.00 | 0.00 | 0.00 | 64 | 1010.8 |
| 20260902152833 | 82 | 349 | 4.0 | 11.0 | 0.00 | 0.00 | 0.00 | 63 | 1010.8 |
| 20260902152332 | 82 | 347 | 4.0 | 12.0 | 0.00 | 0.00 | 0.00 | 63 | 1010.8 |
| 20260902151831 | 82 | 323 | 3.0 | 12.0 | 0.00 | 0.00 | 0.00 | 62 | 1010.8 |
| 20260902150829 | 83 | 5 | 4.0 | 11.0 | 0.00 | 0.00 | 0.00 | 61 | 1010.8 |
| 20260902150330 | 83 | 301 | 4.0 | 11.0 | 0.00 | 0.00 | 0.00 | 61 | 1010.8 |
| 20260902145831 | 83 | 0 | 3.0 | 9.0 | 0.00 | 0.00 | 0.00 | 61 | 1010.8 |
| 20260902145332 | 84 | 351 | 4.0 | 11.0 | 0.00 | 0.00 | 0.00 | 60 | 1010.8 |
| 20260902144832 | 84 | 0 | 4.0 | 11.0 | 0.00 | 0.00 | 0.00 | 60 | 1010.8 |
| 20260902143325 | 85 | 304 | 4.0 | 11.0 | 0.00 | 0.00 | 0.00 | 58 | 1010.9 |
| 20260902142826 | 85 | 5 | 5.0 | 11.0 | 0.00 | 0.00 | 0.00 | 58 | 1010.8 |
| 20260902141823 | 85 | 314 | 4.0 | 10.0 | 0.00 | 0.00 | 0.00 | 58 | 1010.8 |
| 20260902141325 | 85 | 40 | 5.0 | 13.0 | 0.00 | 0.00 | 0.00 | 57 | 1010.8 |
| 20260902140822 | 86 | 344 | 5.0 | 13.0 | 0.00 | 0.00 | 0.00 | 57 | 1010.8 |
| 20260902140323 | 86 | 351 | 5.0 | 11.0 | 0.00 | 0.00 | 0.00 | 57 | 1010.8 |
| 20260902135825 | 86 | 351 | 5.0 | 11.0 | 0.00 | 0.00 | 0.00 | 57 | 1010.8 |
| 20260902135326 | 86 | 325 | 5.0 | 14.0 | 0.00 | 0.00 | 0.00 | 57 | 1010.8 |
| 20260902134826 | 86 | 5 | 5.0 | 14.0 | 0.00 | 0.00 | 0.00 | 57 | 1010.8 |
| 20260902134322 | 86 | 16 | 5.0 | 10.0 | 0.00 | 0.00 | 0.00 | 57 | 1010.8 |
| 20260902133822 | 87 | 317 | 5.0 | 10.0 | 0.00 | 0.00 | 0.00 | 57 | 1010.7 |
| 20260902133317 | 87 | 0 | 5.0 | 10.0 | 0.00 | 0.00 | 0.00 | 57 | 1010.7 |
| 20260902132319 | 87 | 340 | 5.0 | 12.0 | 0.00 | 0.00 | 0.00 | 57 | 1010.7 |
| 20260902131819 | 87 | 342 | 4.0 | 11.0 | 0.00 | 0.00 | 0.00 | 57 | 1010.7 |
| 20260902131320 | 87 | 327 | 5.0 | 11.0 | 0.00 | 0.00 | 0.00 | 57 | 1010.8 |
| 20260902130316 | 88 | 316 | 6.0 | 14.0 | 0.00 | 0.00 | 0.00 | 56 | 1010.8 |
| 20260902125318 | 88 | 335 | 4.0 | 11.0 | 0.00 | 0.00 | 0.00 | 55 | 1010.8 |
| 20260902124816 | 88 | 5 | 4.0 | 11.0 | 0.00 | 0.00 | 0.00 | 55 | 1010.8 |
| 20260902124313 | 88 | 280 | 4.0 | 11.0 | 0.00 | 0.00 | 0.00 | 54 | 1010.8 |
| 20260902123817 | 88 | 286 | 4.0 | 11.0 | 0.00 | 0.00 | 0.00 | 54 | 1010.9 |
| 20260902123315 | 89 | 334 | 4.0 | 11.0 | 0.00 | 0.00 | 0.00 | 53 | 1010.9 |
| 20260902122314 | 89 | 337 | 5.0 | 10.0 | 0.00 | 0.00 | 0.00 | 52 | 1010.8 |
| 20260902121813 | 90 | 344 | 5.0 | 11.0 | 0.00 | 0.00 | 0.00 | 52 | 1010.9 |
| 20260902121311 | 90 | 327 | 4.0 | 12.0 | 0.00 | 0.00 | 0.00 | 51 | 1010.8 |
| 20260902120313 | 90 | 320 | 4.0 | 10.0 | 0.00 | 0.00 | 0.00 | 49 | 1011.0 |
| 20260902115310 | 90 | 5 | 2.0 | 10.0 | 0.00 | 0.00 | 0.00 | 47 | 1011.0 |
| 20260902114808 | 90 | 38 | 2.0 | 10.0 | 0.00 | 0.00 | 0.00 | 47 | 1011.1 |
| 20260902113806 | 90 | 277 | 3.0 | 11.0 | 0.00 | 0.00 | 0.00 | 44 | 1011.3 |
| 20260902113303 | 90 | 322 | 3.0 | 11.0 | 0.00 | 0.00 | 0.00 | 43 | 1011.4 |
| 20260902112803 | 91 | 20 | 2.0 | 9.0 | 0.00 | 0.00 | 0.00 | 42 | 1011.4 |
| 20260902112305 | 90 | 355 | 2.0 | 6.0 | 0.00 | 0.00 | 0.00 | 42 | 1011.4 |
| 20260902111804 | 90 | 221 | 2.0 | 8.0 | 0.00 | 0.00 | 0.00 | 42 | 1011.4 |
| 20260902111304 | 90 | 295 | 2.0 | 12.0 | 0.00 | 0.00 | 0.00 | 43 | 1011.4 |
| 20260902110302 | 90 | 292 | 2.0 | 11.0 | 0.00 | 0.00 | 0.00 | 43 | 1011.5 |
| 20260902105803 | 89 | 339 | 2.0 | 8.0 | 0.00 | 0.00 | 0.00 | 43 | 1011.6 |
| 20260902105300 | 89 | 19 | 2.0 | 8.0 | 0.00 | 0.00 | 0.00 | 43 | 1011.6 |
| 20260902104801 | 90 | 305 | 2.0 | 6.0 | 0.00 | 0.00 | 0.00 | 42 | 1011.7 |
| 20260902104305 | 90 | 355 | 2.0 | 9.0 | 0.00 | 0.00 | 0.00 | 43 | 1011.7 |
| 20260902103803 | 89 | 306 | 2.0 | 9.0 | 0.00 | 0.00 | 0.00 | 43 | 1011.7 |
| 20260902103302 | 89 | 43 | 3.0 | 9.0 | 0.00 | 0.00 | 0.00 | 44 | 1011.8 |
| 20260902102801 | 89 | 281 | 4.0 | 10.0 | 0.00 | 0.00 | 0.00 | 43 | 1011.8 |
| 20260902102300 | 90 | 279 | 4.0 | 10.0 | 0.00 | 0.00 | 0.00 | 42 | 1011.8 |
| 20260902101801 | 90 | 355 | 3.0 | 10.0 | 0.00 | 0.00 | 0.00 | 42 | 1011.8 |
| 20260902101301 | 90 | 315 | 3.0 | 10.0 | 0.00 | 0.00 | 0.00 | 42 | 1011.8 |
| 20260902100801 | 90 | 282 | 3.0 | 10.0 | 0.00 | 0.00 | 0.00 | 42 | 1011.8 |
| 20260902095755 | 89 | 334 | 3.0 | 12.0 | 0.00 | 0.00 | 0.00 | 42 | 1011.9 |
| 20260902095245 | 89 | 327 | 3.0 | 12.0 | 0.00 | 0.00 | 0.00 | 42 | 1011.9 |
| 20260902094746 | 89 | 0 | 3.0 | 10.0 | 0.00 | 0.00 | 0.00 | 41 | 1012.0 |
| 20260902094246 | 89 | 36 | 3.0 | 9.0 | 0.00 | 0.00 | 0.00 | 42 | 1012.0 |
| 20260902093745 | 89 | 16 | 3.0 | 9.0 | 0.00 | 0.00 | 0.00 | 41 | 1012.1 |
| 20260902093248 | 89 | 355 | 2.0 | 8.0 | 0.00 | 0.00 | 0.00 | 41 | 1012.1 |
| 20260902092239 | 89 | 279 | 3.0 | 9.0 | 0.00 | 0.00 | 0.00 | 40 | 1012.1 |
| 20260902090736 | 89 | 229 | 2.0 | 9.0 | 0.00 | 0.00 | 0.00 | 40 | 1012.2 |
| 20260902090237 | 89 | 198 | 2.0 | 9.0 | 0.00 | 0.00 | 0.00 | 40 | 1012.3 |
| 20260902085746 | 89 | 186 | 1.0 | 7.0 | 0.00 | 0.00 | 0.00 | 39 | 1012.3 |
| 20260902085235 | 89 | 251 | 0.0 | 5.0 | 0.00 | 0.00 | 0.00 | 41 | 1012.3 |
| 20260902084736 | 89 | 170 | 1.0 | 5.0 | 0.00 | 0.00 | 0.00 | 41 | 1012.4 |
| 20260902084233 | 88 | 327 | 2.0 | 8.0 | 0.00 | 0.00 | 0.00 | 38 | 1012.5 |
| 20260902083733 | 88 | 31 | 2.0 | 8.0 | 0.00 | 0.00 | 0.00 | 37 | 1012.5 |
| 20260902083232 | 88 | 252 | 2.0 | 8.0 | 0.00 | 0.00 | 0.00 | 38 | 1012.5 |
| 20260902082738 | 88 | 344 | 2.0 | 8.0 | 0.00 | 0.00 | 0.00 | 39 | 1012.6 |
| 20260902082227 | 88 | 346 | 1.0 | 6.0 | 0.00 | 0.00 | 0.00 | 38 | 1012.8 |
| 20260902081748 | 88 | 334 | 1.0 | 5.0 | 0.00 | 0.00 | 0.00 | 39 | 1012.8 |
| 20260902080729 | 87 | 278 | 0.0 | 4.0 | 0.00 | 0.00 | 0.00 | 37 | 1012.9 |
| 20260902080225 | 87 | 135 | 0.0 | 3.0 | 0.00 | 0.00 | 0.00 | 36 | 1012.8 |
| 20260902075725 | 87 | 133 | 0.0 | 4.0 | 0.00 | 0.00 | 0.00 | 37 | 1012.8 |
| 20260902075227 | 87 | 133 | 0.0 | 4.0 | 0.00 | 0.00 | 0.00 | 37 | 1012.8 |
| 20260902074726 | 86 | 194 | 0.0 | 3.0 | 0.00 | 0.00 | 0.00 | 38 | 1012.8 |
| 20260902073716 | 86 | 0 | 1.0 | 5.0 | 0.00 | 0.00 | 0.00 | 37 | 1012.8 |
| 20260902073218 | 86 | 5 | 2.0 | 5.0 | 0.00 | 0.00 | 0.00 | 36 | 1012.9 |
| 20260902072718 | 85 | 344 | 2.0 | 5.0 | 0.00 | 0.00 | 0.00 | 35 | 1012.9 |
| 20260902072213 | 85 | 342 | 1.0 | 5.0 | 0.00 | 0.00 | 0.00 | 33 | 1012.9 |
| 20260902071734 | 85 | 24 | 1.0 | 5.0 | 0.00 | 0.00 | 0.00 | 39 | 1012.8 |
| 20260902070712 | 84 | 329 | 2.0 | 5.0 | 0.00 | 0.00 | 0.00 | 41 | 1012.8 |
| 20260902070212 | 84 | 287 | 1.0 | 5.0 | 0.00 | 0.00 | 0.00 | 42 | 1012.8 |
| 20260902065712 | 83 | 311 | 1.0 | 4.0 | 0.00 | 0.00 | 0.00 | 43 | 1012.9 |
| 20260902065211 | 83 | 5 | 1.0 | 4.0 | 0.00 | 0.00 | 0.00 | 44 | 1012.9 |
| 20260902064711 | 83 | 300 | 1.0 | 4.0 | 0.00 | 0.00 | 0.00 | 44 | 1012.9 |
| 20260902064210 | 83 | 346 | 0.0 | 3.0 | 0.00 | 0.00 | 0.00 | 45 | 1013.0 |
| 20260902063707 | 82 | 329 | 0.0 | 3.0 | 0.00 | 0.00 | 0.00 | 47 | 1012.9 |
| 20260902063201 | 82 | 336 | 0.0 | 3.0 | 0.00 | 0.00 | 0.00 | 48 | 1012.9 |
| 20260902062703 | 81 | 336 | 0.0 | 0.0 | 0.00 | 0.00 | 0.00 | 49 | 1012.9 |
| 20260902061702 | 80 | 344 | 0.0 | 2.0 | 0.00 | 0.00 | 0.00 | 50 | 1013.0 |
| 20260902061157 | 79 | 347 | 0.0 | 2.0 | 0.00 | 0.00 | 0.00 | 51 | 1012.9 |
| 20260902060158 | 79 | 348 | 0.0 | 2.0 | 0.00 | 0.00 | 0.00 | 57 | 1012.9 |
| 20260902055655 | 78 | 349 | 0.0 | 2.0 | 0.00 | 0.00 | 0.00 | 58 | 1012.9 |
| 20260902055159 | 78 | 348 | 0.0 | 0.0 | 0.00 | 0.00 | 0.00 | 59 | 1012.9 |
| 20260902054645 | 77 | 348 | 0.0 | 0.0 | 0.00 | 0.00 | 0.00 | 61 | 1012.9 |
| 20260902053634 | 76 | 41 | 0.0 | 0.0 | 0.00 | 0.00 | 0.00 | 64 | 1012.8 |
| 20260902052630 | 74 | 41 | 0.0 | 0.0 | 0.00 | 0.00 | 0.00 | 69 | 1012.9 |
| 20260902051629 | 73 | 41 | 0.0 | 3.0 | 0.00 | 0.00 | 0.00 | 75 | 1012.9 |
| 20260902051131 | 72 | 45 | 0.0 | 2.0 | 0.00 | 0.00 | 0.00 | 77 | 1012.8 |
| 20260902050625 | 71 | 46 | 0.0 | 0.0 | 0.00 | 0.00 | 0.00 | 79 | 1012.9 |
| 20260902050124 | 71 | 47 | 0.0 | 0.0 | 0.00 | 0.00 | 0.00 | 81 | 1013.0 |
| 20260902045622 | 71 | 47 | 0.0 | 0.0 | 0.00 | 0.00 | 0.00 | 83 | 1012.9 |
| 20260902045119 | 70 | 46 | 0.0 | 2.0 | 0.00 | 0.00 | 0.00 | 84 | 1012.9 |
| 20260902044620 | 70 | 46 | 0.0 | 2.0 | 0.00 | 0.00 | 0.00 | 85 | 1012.9 |
| 20260902044115 | 70 | 46 | 0.0 | 3.0 | 0.00 | 0.00 | 0.00 | 85 | 1012.9 |
| 20260902043113 | 70 | 59 | 0.0 | 0.0 | 0.00 | 0.00 | 0.00 | 88 | 1012.9 |
| 20260902041044 | 69 | 59 | 0.0 | 0.0 | 0.00 | 0.00 | 0.00 | 88 | 1012.6 |
| 20260902040603 | 69 | 59 | 0.0 | 0.0 | 0.00 | 0.00 | 0.00 | 87 | 1012.8 |
| 20260902040039 | 69 | 59 | 0.0 | 0.0 | 0.00 | 0.00 | 0.00 | 88 | 1012.8 |
| 20260902035604 | 69 | 59 | 0.0 | 0.0 | 0.00 | 0.00 | 0.00 | 88 | 1012.6 |
| 20260902034600 | 69 | 59 | 0.0 | 2.0 | 0.00 | 0.00 | 0.00 | 87 | 1012.6 |
| 20260902034017 | 69 | 59 | 0.0 | 2.0 | 0.00 | 0.00 | 0.00 | 87 | 1012.6 |
| 20260902033554 | 69 | 59 | 0.0 | 1.0 | 0.00 | 0.00 | 0.00 | 87 | 1012.5 |
| 20260902033019 | 69 | 59 | 0.0 | 1.0 | 0.00 | 0.00 | 0.00 | 87 | 1012.5 |
| 20260902032553 | 69 | 59 | 0.0 | 1.0 | 0.00 | 0.00 | 0.00 | 87 | 1012.5 |
| 20260902032012 | 69 | 59 | 0.0 | 1.0 | 0.00 | 0.00 | 0.00 | 87 | 1012.5 |
| 20260902031005 | 69 | 59 | 0.0 | 2.0 | 0.00 | 0.00 | 0.00 | 86 | 1012.4 |
| 20260902030552 | 69 | 60 | 0.0 | 2.0 | 0.00 | 0.00 | 0.00 | 86 | 1012.3 |
| 20260902030005 | 69 | 60 | 0.0 | 3.0 | 0.00 | 0.00 | 0.00 | 86 | 1012.4 |
| 20260902025545 | 69 | 60 | 0.0 | 3.0 | 0.00 | 0.00 | 0.00 | 86 | 1012.3 |
| 20260902024953 | 69 | 63 | 0.0 | 3.0 | 0.00 | 0.00 | 0.00 | 86 | 1012.3 |
| 20260902024547 | 70 | 63 | 1.0 | 4.0 | 0.00 | 0.00 | 0.00 | 86 | 1012.3 |
| 20260902023941 | 70 | 21 | 1.0 | 6.0 | 0.00 | 0.00 | 0.00 | 86 | 1012.2 |
| 20260902023543 | 70 | 355 | 2.0 | 6.0 | 0.00 | 0.00 | 0.00 | 85 | 1012.2 |
| 20260902022940 | 70 | 343 | 2.0 | 6.0 | 0.00 | 0.00 | 0.00 | 85 | 1012.1 |
| 20260902022540 | 70 | 323 | 2.0 | 6.0 | 0.00 | 0.00 | 0.00 | 85 | 1012.1 |
| 20260902021938 | 70 | 286 | 1.0 | 5.0 | 0.00 | 0.00 | 0.00 | 84 | 1012.1 |
| 20260902021540 | 70 | 308 | 1.0 | 5.0 | 0.00 | 0.00 | 0.00 | 84 | 1012.1 |
| 20260902020931 | 70 | 298 | 1.0 | 5.0 | 0.00 | 0.00 | 0.00 | 84 | 1012.1 |
| 20260902020537 | 70 | 298 | 2.0 | 6.0 | 0.00 | 0.00 | 0.00 | 83 | 1012.0 |
| 20260902015930 | 70 | 308 | 2.0 | 6.0 | 0.00 | 0.00 | 0.00 | 83 | 1012.0 |
| 20260902015539 | 70 | 319 | 2.0 | 5.0 | 0.00 | 0.00 | 0.00 | 82 | 1012.0 |
| 20260902014930 | 70 | 323 | 2.0 | 6.0 | 0.00 | 0.00 | 0.00 | 82 | 1012.1 |
| 20260902014536 | 70 | 342 | 2.0 | 6.0 | 0.00 | 0.00 | 0.00 | 81 | 1012.1 |
| 20260902012928 | 70 | 307 | 2.0 | 6.0 | 0.00 | 0.00 | 0.00 | 80 | 1012.0 |
| 20260902012532 | 70 | 341 | 2.0 | 6.0 | 0.00 | 0.00 | 0.00 | 79 | 1012.0 |
| 20260902011931 | 70 | 333 | 2.0 | 6.0 | 0.00 | 0.00 | 0.00 | 79 | 1012.0 |
| 20260902011527 | 70 | 338 | 2.0 | 8.0 | 0.00 | 0.00 | 0.00 | 79 | 1012.0 |
| 20260902010925 | 70 | 318 | 2.0 | 8.0 | 0.00 | 0.00 | 0.00 | 79 | 1012.0 |
| 20260902010524 | 70 | 355 | 2.0 | 8.0 | 0.00 | 0.00 | 0.00 | 78 | 1012.0 |
| 20260902005525 | 70 | 325 | 3.0 | 6.0 | 0.00 | 0.00 | 0.00 | 78 | 1012.0 |
| 20260902002921 | 69 | 350 | 1.0 | 5.0 | 0.00 | 0.00 | 0.00 | 80 | 1011.8 |
| 20260902002519 | 69 | 328 | 1.0 | 5.0 | 0.00 | 0.00 | 0.00 | 81 | 1011.8 |
| 20260902001922 | 69 | 355 | 2.0 | 5.0 | 0.00 | 0.00 | 0.00 | 81 | 1011.8 |
| 20260902001521 | 69 | 325 | 2.0 | 5.0 | 0.00 | 0.00 | 0.00 | 82 | 1011.8 |
| 20260902000923 | 69 | 321 | 2.0 | 6.0 | 0.00 | 0.00 | 0.00 | 82 | 1011.9 |
| 20260902000515 | 69 | 355 | 1.0 | 6.0 | 0.00 | 0.00 | 0.00 | 83 | 1011.8 |
| 20260901235918 | 68 | 313 | 1.0 | 4.0 | 0.00 | 0.00 | 0.00 | 84 | 1011.8 |
| 20260901235511 | 68 | 315 | 1.0 | 4.0 | 0.00 | 0.00 | 0.00 | 84 | 1011.8 |
| 20260901234916 | 68 | 321 | 0.0 | 3.0 | 0.00 | 0.00 | 0.00 | 85 | 1011.8 |
| 20260901234515 | 68 | 308 | 0.0 | 3.0 | 0.00 | 0.00 | 0.00 | 85 | 1011.8 |
| 20260901233916 | 68 | 323 | 0.0 | 3.0 | 0.00 | 0.00 | 0.00 | 86 | 1011.8 |
| 20260901232913 | 68 | 338 | 1.0 | 3.0 | 0.00 | 0.00 | 0.00 | 87 | 1011.8 |
| 20260901232508 | 68 | 344 | 1.0 | 4.0 | 0.00 | 0.00 | 0.00 | 87 | 1011.9 |
| 20260901231507 | 68 | 342 | 1.0 | 4.0 | 0.00 | 0.00 | 0.00 | 88 | 1012.0 |
| 20260901230910 | 68 | 350 | 1.0 | 4.0 | 0.00 | 0.00 | 0.00 | 88 | 1012.0 |
| 20260901230509 | 68 | 334 | 1.0 | 4.0 | 0.00 | 0.00 | 0.00 | 89 | 1012.0 |
| 20260901225910 | 68 | 331 | 1.0 | 6.0 | 0.00 | 0.00 | 0.00 | 89 | 1012.1 |
| 20260901225502 | 69 | 331 | 2.0 | 6.0 | 0.00 | 0.00 | 0.00 | 89 | 1012.1 |
| 20260901223912 | 70 | 355 | 0.0 | 3.0 | 0.00 | 0.00 | 0.00 | 90 | 1012.2 |
| 20260901222909 | 70 | 355 | 1.0 | 4.0 | 0.00 | 0.00 | 0.00 | 89 | 1012.1 |
| 20260901221910 | 71 | 289 | 1.0 | 4.0 | 0.00 | 0.00 | 0.00 | 89 | 1012.4 |
| 20260901220911 | 71 | 339 | 1.0 | 5.0 | 0.00 | 0.00 | 0.00 | 89 | 1012.5 |
| 20260901220456 | 71 | 313 | 0.0 | 3.0 | 0.00 | 0.00 | 0.00 | 89 | 1012.6 |
| 20260901215910 | 71 | 314 | 0.0 | 3.0 | 0.00 | 0.00 | 0.00 | 89 | 1012.6 |
| 20260901215454 | 71 | 323 | 1.0 | 4.0 | 0.00 | 0.00 | 0.00 | 89 | 1012.6 |
| 20260901214912 | 71 | 324 | 1.0 | 4.0 | 0.00 | 0.00 | 0.00 | 88 | 1012.6 |
| 20260901214447 | 71 | 319 | 0.0 | 3.0 | 0.00 | 0.00 | 0.00 | 88 | 1012.5 |
| 20260901213908 | 71 | 319 | 1.0 | 4.0 | 0.00 | 0.00 | 0.00 | 88 | 1012.6 |
| 20260901213452 | 72 | 321 | 2.0 | 7.0 | 0.00 | 0.00 | 0.00 | 88 | 1012.5 |
| 20260901212909 | 72 | 319 | 2.0 | 7.0 | 0.00 | 0.00 | 0.00 | 87 | 1012.6 |
| 20260901212449 | 72 | 306 | 1.0 | 5.0 | 0.00 | 0.00 | 0.00 | 87 | 1012.5 |
| 20260901211908 | 72 | 319 | 0.0 | 4.0 | 0.00 | 0.00 | 0.00 | 87 | 1012.6 |
| 20260901210451 | 72 | 304 | 2.0 | 6.0 | 0.00 | 0.00 | 0.00 | 86 | 1012.6 |
| 20260901205907 | 72 | 316 | 2.0 | 7.0 | 0.00 | 0.00 | 0.00 | 85 | 1012.4 |
| 20260901205445 | 72 | 309 | 2.0 | 8.0 | 0.00 | 0.00 | 0.00 | 85 | 1012.5 |
| 20260901204446 | 72 | 290 | 2.0 | 9.0 | 0.00 | 0.00 | 0.00 | 84 | 1012.5 |
| 20260901203901 | 72 | 313 | 2.0 | 5.0 | 0.00 | 0.00 | 0.00 | 84 | 1012.5 |